AD8BW Weather Reports


time (UTC)temp
F
wind
direction
speed
knots
gust
knots
rain 1hr
in
rain 24hr
in
rain mn
in
humidity
%
barometer
mb
20260510192110 55 342 1.7 4.3 0.00 0.00 0.00 37 1017.4
20260510191113 55 296 3.5 10.4 0.00 0.00 0.00 37 1017.6
20260510190109 55 261 3.5 7.8 0.00 0.00 0.00 36 1017.4
20260510185114 55 156 1.7 6.1 0.00 0.00 0.00 36 1017.3
20260510184104 56 227 3.5 9.6 0.00 0.00 0.00 36 1017.4
20260510183104 56 355 3.5 7.8 0.00 0.05 0.00 36 1017.2
20260510182102 56 263 3.5 13.9 0.00 0.14 0.00 34 1017.1
20260510181103 56 266 3.5 9.6 0.00 0.14 0.00 36 1017.0
20260510175102 56 144 3.5 9.6 0.00 0.14 0.00 36 1016.8
20260510174104 56 340 3.5 7.8 0.00 0.14 0.00 38 1016.9
20260510173104 55 217 3.5 6.1 0.00 0.14 0.00 38 1016.9
20260510172059 55 126 3.5 10.4 0.00 0.14 0.00 39 1017.0
20260510171100 55 335 1.7 9.6 0.00 0.14 0.00 39 1017.0
20260510170058 54 230 3.5 9.6 0.00 0.14 0.00 38 1017.1
20260510165058 54 292 3.5 7.8 0.00 0.14 0.00 38 1017.0
20260510164055 54 154 1.7 6.1 0.00 0.14 0.00 40 1017.0
20260510163056 53 351 3.5 13.9 0.00 0.14 0.00 37 1017.0
20260510162100 53 126 1.7 7.8 0.00 0.14 0.00 39 1016.9
20260510161055 53 315 3.5 10.4 0.00 0.14 0.00 42 1016.9
20260510160056 53 242 1.7 6.1 0.00 0.14 0.00 41 1016.8
20260510155058 52 151 1.7 6.1 0.00 0.14 0.00 43 1016.8
20260510154055 52 351 1.7 9.6 0.00 0.14 0.00 41 1016.8
20260510153052 51 221 1.7 9.6 0.00 0.14 0.00 46 1016.6
20260510152049 51 272 3.5 10.4 0.00 0.14 0.00 46 1016.6
20260510151052 51 180 1.7 7.8 0.00 0.14 0.00 46 1016.5
20260510150050 50 302 1.7 7.8 0.00 0.14 0.00 47 1016.4
20260510145050 50 259 1.7 6.1 0.00 0.14 0.00 46 1016.4
20260510144048 50 318 1.7 6.1 0.00 0.14 0.00 48 1016.3
20260510143048 50 275 3.5 7.8 0.00 0.14 0.00 47 1016.2
20260510142048 49 355 1.7 7.8 0.00 0.14 0.00 46 1016.1
20260510141049 49 286 3.5 6.1 0.00 0.14 0.00 46 1016.0
20260510140050 48 355 3.5 7.8 0.00 0.14 0.00 47 1015.9
20260510135047 48 312 1.7 6.1 0.00 0.14 0.00 46 1015.9
20260510134051 48 350 1.7 6.1 0.00 0.14 0.00 49 1015.9
20260510133050 47 334 1.7 9.6 0.00 0.14 0.00 50 1015.8
20260510132057 47 273 1.7 6.1 0.00 0.14 0.00 52 1015.8
20260510131100 47 302 1.7 6.1 0.00 0.14 0.00 53 1015.7
20260510130041 46 333 3.5 6.1 0.00 0.14 0.00 56 1015.5
20260510125042 46 345 1.7 6.1 0.00 0.14 0.00 58 1015.5
20260510124042 45 316 1.7 4.3 0.00 0.14 0.00 60 1015.4
20260510123041 45 281 1.7 4.3 0.00 0.14 0.00 61 1015.4
20260510122044 44 332 1.7 4.3 0.00 0.14 0.00 61 1015.1
20260510121047 44 329 1.7 4.3 0.00 0.14 0.00 64 1015.0
20260510120044 43 305 1.7 6.1 0.00 0.14 0.00 64 1014.8
20260510115044 43 313 1.7 4.3 0.00 0.14 0.00 66 1014.8
20260510114039 42 327 1.7 3.5 0.00 0.14 0.00 67 1014.6
20260510113036 42 314 0.0 1.7 0.00 0.14 0.00 69 1014.6
20260510112036 41 318 0.0 1.7 0.00 0.14 0.00 71 1014.5
20260510111037 40 315 0.0 3.5 0.00 0.14 0.00 71 1014.3
20260510110037 40 320 0.0 1.7 0.00 0.14 0.00 73 1014.2
20260510105035 40 320 0.0 1.7 0.00 0.14 0.00 72 1014.0
20260510104036 40 320 0.0 1.7 0.00 0.14 0.00 71 1013.9
20260510103034 39 320 0.0 1.7 0.00 0.14 0.00 72 1013.8
20260510102035 39 320 0.0 0.0 0.00 0.14 0.00 73 1013.8
20260510101032 39 320 0.0 0.0 0.00 0.14 0.00 74 1013.6
20260510100033 39 320 0.0 0.0 0.00 0.14 0.00 75 1013.5
20260510095033 39 320 0.0 0.0 0.00 0.14 0.00 75 1013.3
20260510094031 39 320 0.0 0.0 0.00 0.14 0.00 75 1013.1
20260510093033 40 320 0.0 0.0 0.00 0.14 0.00 75 1013.1
20260510092034 40 320 0.0 0.0 0.00 0.14 0.00 74 1013.0
20260510091029 41 320 0.0 0.0 0.00 0.14 0.00 72 1012.7
20260510090032 41 320 0.0 0.0 0.00 0.14 0.00 71 1012.6
20260510085029 41 320 0.0 1.7 0.00 0.14 0.00 71 1012.4
20260510084031 42 320 0.0 1.7 0.00 0.14 0.00 71 1012.3
20260510083029 42 320 0.0 1.7 0.00 0.14 0.00 70 1012.1
20260510082030 42 315 0.0 0.0 0.00 0.14 0.00 70 1011.9
20260510081031 43 315 0.0 3.5 0.00 0.14 0.00 69 1011.7
20260510080033 43 321 1.7 3.5 0.00 0.14 0.00 70 1011.6
20260510075026 42 322 0.0 3.5 0.00 0.14 0.00 69 1011.4
20260510074026 43 329 0.0 1.7 0.00 0.14 0.00 70 1011.3
20260510073030 43 329 0.0 0.0 0.00 0.14 0.00 71 1011.1
20260510072026 43 329 0.0 1.7 0.00 0.14 0.00 68 1011.1
20260510071026 44 329 0.0 1.7 0.00 0.14 0.00 68 1010.9
20260510070024 44 329 0.0 1.7 0.00 0.14 0.00 68 1010.7
20260510065028 45 329 0.0 3.5 0.00 0.14 0.00 67 1010.6
20260510064022 45 323 1.7 3.5 0.00 0.14 0.00 66 1010.5
20260510063025 46 325 1.7 4.3 0.00 0.14 0.00 66 1010.3
20260510062025 46 329 1.7 4.3 0.00 0.14 0.00 66 1010.2
20260510061023 47 325 1.7 4.3 0.00 0.14 0.00 64 1010.1
20260510060023 47 336 3.5 6.1 0.00 0.14 0.00 62 1010.0
20260510055017 48 341 3.5 9.6 0.00 0.14 0.00 63 1009.8
20260510054015 47 340 1.7 6.1 0.00 0.14 0.00 64 1009.8
20260510053016 47 331 0.0 0.0 0.00 0.14 0.00 66 1009.7
20260510052015 47 331 0.0 0.0 0.00 0.14 0.00 65 1009.5
20260510051015 48 331 0.0 0.0 0.00 0.14 0.00 64 1009.4
20260510050017 48 331 0.0 0.0 0.00 0.14 0.00 63 1009.1
20260510045014 49 331 0.0 0.0 0.00 0.14 0.00 61 1009.1
20260510044016 50 331 0.0 1.7 0.00 0.14 0.00 60 1008.9
20260510043024 50 331 0.0 3.5 0.00 0.14 0.00 60 1008.8
20260510042016 51 331 1.7 3.5 0.00 0.14 0.00 59 1008.6
20260510041016 51 328 1.7 3.5 0.00 0.14 0.00 59 1008.4
20260510040014 52 330 1.7 3.5 0.00 0.14 0.00 58 1008.3
20260510035011 52 331 0.0 0.0 0.00 0.14 0.14 58 1008.2
20260510034010 52 329 1.7 4.3 0.00 0.14 0.14 58 1008.0
20260510033011 53 338 1.7 4.3 0.00 0.14 0.14 58 1008.0
20260510032011 54 335 3.5 4.3 0.00 0.14 0.14 58 1007.8
20260510031011 55 327 1.7 7.8 0.00 0.14 0.14 56 1007.8
20260510030010 56 333 1.7 4.3 0.00 0.14 0.14 54 1007.5
20260510025007 56 336 3.5 7.8 0.00 0.14 0.14 52 1007.2
20260510024007 57 317 3.5 7.8 0.00 0.14 0.14 52 1007.1
20260510023005 57 349 3.5 7.8 0.00 0.14 0.14 51 1007.0
20260510022003 58 343 1.7 6.1 0.00 0.14 0.14 50 1006.7
20260510021004 58 323 3.5 7.8 0.00 0.14 0.14 50 1006.5
20260510020004 58 333 3.5 6.1 0.00 0.14 0.14 50 1006.2
20260510015008 58 282 3.5 9.6 0.00 0.14 0.14 49 1006.0
20260510014006 58 19 4.3 10.4 0.00 0.14 0.14 49 1005.7
20260510013009 59 348 4.3 12.2 0.00 0.14 0.14 48 1005.2
20260510012002 59 355 1.7 9.6 0.00 0.14 0.14 53 1004.8
20260510011003 58 310 0.0 3.5 0.00 0.14 0.14 61 1004.5
20260510010004 58 321 0.0 1.7 0.00 0.14 0.14 65 1004.1
20260510005003 59 321 0.0 1.7 0.00 0.14 0.14 59 1004.1
20260510004003 60 321 0.0 3.5 0.00 0.14 0.14 55 1003.9
20260510003001 61 332 1.7 4.3 0.00 0.14 0.14 52 1003.8
20260510002002 61 336 0.0 3.5 0.00 0.14 0.14 51 1003.5
20260510001003 62 336 1.7 6.1 0.00 0.14 0.14 50 1003.4
20260510000001 62 311 1.7 6.1 0.00 0.14 0.14 49 1003.3
20260509235006 62 278 1.7 4.3 0.00 0.14 0.14 49 1003.1
20260509234001 63 309 3.5 9.6 0.00 0.14 0.14 47 1003.1
20260509233004 63 313 3.5 12.2 0.00 0.14 0.14 46 1003.0
20260509232002 64 326 4.3 12.2 0.00 0.14 0.14 45 1002.9
20260509231002 65 234 3.5 10.4 0.00 0.14 0.14 44 1002.8
20260509230004 65 227 4.3 12.2 0.00 0.14 0.14 43 1002.7
20260509225003 65 350 4.3 13.9 0.00 0.14 0.14 41 1002.5
20260509224002 66 292 4.3 23.5 0.00 0.14 0.14 40 1002.3
20260509222958 66 279 4.3 12.2 0.00 0.14 0.14 42 1002.0
20260509221957 66 276 4.3 12.2 0.00 0.14 0.14 42 1001.7
20260509220958 66 333 3.5 12.2 0.00 0.14 0.14 42 1001.6
20260509215957 66 267 4.3 12.2 0.00 0.14 0.14 42 1001.5
20260509214955 65 209 3.5 9.6 0.00 0.14 0.14 44 1001.4
20260509213957 66 285 4.3 13.9 0.00 0.14 0.14 43 1001.2
20260509212954 66 278 4.3 15.6 0.00 0.14 0.14 43 1001.3
20260509211951 67 249 3.5 12.2 0.00 0.14 0.14 43 1001.3
20260509210957 66 242 4.3 13.9 0.00 0.14 0.14 43 1001.2
20260509205956 65 0 4.3 15.6 0.00 0.14 0.14 43 1001.2
20260509204954 65 285 4.3 15.6 0.00 0.14 0.14 46 1001.2
20260509203953 65 227 3.5 10.4 0.00 0.14 0.14 46 1001.2
20260509202956 64 265 3.5 17.4 0.00 0.14 0.14 46 1001.5
20260509201954 64 250 3.5 12.2 0.00 0.14 0.14 50 1001.8
20260509200951 64 263 4.3 17.4 0.00 0.14 0.14 49 1001.9
20260509195951 63 0 3.5 19.1 0.00 0.14 0.14 51 1001.9
20260509194955 64 355 3.5 10.4 0.00 0.14 0.14 56 1001.9
20260509193954 63 233 3.5 7.8 0.00 0.14 0.14 61 1001.7
20260509192951 62 347 1.7 7.8 0.06 0.14 0.14 71 1001.7